Starlink 31905

operational
NORAD ID: 59896 Int'l Des: 2024-100 Owner: SPXS Country: US Constellation: starlink
LEOCIRCULAR

Starlink 31905について

説明を読み込み中...

リアルタイム位置

3D地球を読み込み中...

次回通過

高度履歴

Altitude vs Time

uPlot chart will show altitude changes over time

軌道要素

1 59896U 24100M 25352.66275909 -.00001352 00000-0 -39603-4 0 9993
2 59896 43.0015 219.6391 0000900 267.5329 92.5420 15.27579925 88804
Epoch: Dec 18, 2025 • Age: 29 hours

現在のステータス

高度 486.8 km
速度 7.63 km/s
衛星直下点 43.15°N, 95.49°W
打ち上げ日 May 28, 2024
運用期間 1.5 years
タイプ internet

技術仕様

分類 Payload
質量 730.00 kg
乾燥質量 700.00 kg
総質量 730.00 kg
長さ 0.30 m
直径 4.10 m
スパン 29.00 m
形状 Box + pan
製造者 SPXS
バスタイプ Starlink V2M
フェーズステータス In Orbit
所有者/国 SPXS/US

大規模コンステレーション

Loading constellations...